When you browse on this site, cookies collect data to enhance your experience and personalize the content and advertising you see.
Visit our Privacy Policy to learn more. By continuing to use the site, you agree to this use of cookies and data.
  • In Österreich
  • Länderverzeichnis
  • Für 7 Tage
  • Wassertemperatur
  • Wetterkarte
  • News
  • Widgets
  • user-avatar
    Anmelden

    Stündliche Wetter Tirana

    Heute, 24 Januar, Freitag

    Zeit Temperatur Niederschläge Wind Luftdruck Luftfeuchtigkeit
    00:00 +5°C° 0 mm 3 m/S 764 mmHg 48%
    01:00 +4°C° 0 mm 3 m/S 764 mmHg 47%
    02:00 +4°C° 0 mm 3 m/S 764 mmHg 45%
    03:00 +4°C° 0 mm 3 m/S 764 mmHg 43%
    04:00 +4°C° 0 mm 3 m/S 764 mmHg 42%
    05:00 +4°C° 0 mm 3 m/S 764 mmHg 43%
    06:00 +4°C° 0 mm 3 m/S 764 mmHg 45%
    07:00 +5°C° 0 mm 3 m/S 765 mmHg 46%
    08:00 +7°C° 0 mm 3 m/S 765 mmHg 47%
    09:00 +9°C° 0 mm 3 m/S 765 mmHg 49%
    10:00 +11°C° 0 mm 3 m/S 765 mmHg 50%
    11:00 +12°C° 0 mm 3 m/S 765 mmHg 49%
    12:00 +13°C° 0 mm 2 m/S 764 mmHg 48%
    13:00 +14°C° 0 mm 2 m/S 764 mmHg 47%
    14:00 +13°C° 0 mm 3 m/S 764 mmHg 52%
    15:00 +12°C° 0 mm 3 m/S 764 mmHg 56%
    16:00 +11°C° 0 mm 3 m/S 764 mmHg 61%
    17:00 +10°C° 0 mm 3 m/S 764 mmHg 64%
    18:00 +9°C° 0 mm 3 m/S 764 mmHg 67%
    19:00 +8°C° 0 mm 3 m/S 764 mmHg 71%
    20:00 +8°C° 0 mm 3 m/S 764 mmHg 71%
    21:00 +8°C° 0 mm 3 m/S 764 mmHg 71%
    22:00 +8°C° 0 mm 3 m/S 764 mmHg 71%
    23:00 +7°C° 0 mm 3 m/S 763 mmHg 72%

    Morgen, 25 Januar, Samstag

    Zeit Temperatur Niederschläge Wind Luftdruck Luftfeuchtigkeit
    00:00 +7°C° 0 mm 3 m/S 763 mmHg 72%
    01:00 +7°C° 0 mm 3 m/S 763 mmHg 72%
    02:00 +7°C° 0 mm 3 m/S 762 mmHg 72%
    03:00 +7°C° 0 mm 4 m/S 762 mmHg 72%
    04:00 +7°C° 0 mm 4 m/S 762 mmHg 71%
    05:00 +7°C° 0.1 mm 4 m/S 762 mmHg 72%
    06:00 +7°C° 0.1 mm 4 m/S 762 mmHg 72%
    07:00 +7°C° 0.1 mm 4 m/S 762 mmHg 73%
    08:00 +8°C° 0.1 mm 4 m/S 762 mmHg 71%
    09:00 +10°C° 0.1 mm 4 m/S 762 mmHg 68%
    10:00 +12°C° 0.1 mm 4 m/S 762 mmHg 66%
    11:00 +12°C° 0.1 mm 4 m/S 761 mmHg 65%
    12:00 +13°C° 0.1 mm 4 m/S 761 mmHg 65%
    13:00 +13°C° 0.1 mm 4 m/S 761 mmHg 64%
    14:00 +13°C° 0.1 mm 5 m/S 760 mmHg 67%
    15:00 +12°C° 0.1 mm 5 m/S 760 mmHg 71%
    16:00 +12°C° 0.1 mm 5 m/S 760 mmHg 75%
    17:00 +10°C° 0.1 mm 5 m/S 760 mmHg 75%
    18:00 +10°C° 0.1 mm 5 m/S 760 mmHg 76%
    19:00 +10°C° 0.1 mm 5 m/S 760 mmHg 76%
    20:00 +10°C° 0.1 mm 5 m/S 760 mmHg 75%
    21:00 +10°C° 0.1 mm 5 m/S 760 mmHg 74%
    22:00 +11°C° 0.1 mm 4 m/S 760 mmHg 73%
    23:00 +11°C° 0.1 mm 4 m/S 760 mmHg 74%

    übermorgen, 26 Januar, Sonntag

    Zeit Temperatur Niederschläge Wind Luftdruck Luftfeuchtigkeit
    00:00 +10°C° 0.1 mm 4 m/S 760 mmHg 74%
    01:00 +10°C° 0.1 mm 4 m/S 760 mmHg 74%
    02:00 +10°C° 0.1 mm 4 m/S 760 mmHg 74%
    03:00 +10°C° 0.1 mm 4 m/S 759 mmHg 73%
    04:00 +10°C° 0.1 mm 4 m/S 759 mmHg 73%
    05:00 +10°C° 0 mm 4 m/S 759 mmHg 72%
    06:00 +10°C° 0 mm 4 m/S 759 mmHg 72%
    07:00 +10°C° 0 mm 3 m/S 759 mmHg 71%
    08:00 +11°C° 0 mm 3 m/S 759 mmHg 67%
    09:00 +12°C° 0 mm 3 m/S 759 mmHg 64%
    10:00 +13°C° 0 mm 3 m/S 759 mmHg 60%
    11:00 +14°C° 0 mm 3 m/S 758 mmHg 58%
    12:00 +15°C° 0 mm 2 m/S 758 mmHg 56%
    13:00 +16°C° 0 mm 2 m/S 758 mmHg 54%
    14:00 +15°C° 0 mm 2 m/S 757 mmHg 58%
    15:00 +15°C° 0 mm 2 m/S 757 mmHg 63%
    16:00 +14°C° 0 mm 2 m/S 757 mmHg 67%
    17:00 +14°C° 0.2 mm 2 m/S 757 mmHg 67%
    18:00 +13°C° 0.2 mm 2 m/S 757 mmHg 68%
    19:00 +13°C° 0.2 mm 1 m/S 756 mmHg 68%
    20:00 +13°C° 0.7 mm 2 m/S 756 mmHg 69%
    21:00 +13°C° 0.7 mm 2 m/S 756 mmHg 70%
    22:00 +12°C° 0.7 mm 2 m/S 756 mmHg 71%
    23:00 +11°C° 3 mm 3 m/S 756 mmHg 78%

    27 Januar, Montag

    Zeit Temperatur Niederschläge Wind Luftdruck Luftfeuchtigkeit
    00:00 +10°C° 3 mm 3 m/S 756 mmHg 85%
    01:00 +10°C° 3 mm 4 m/S 755 mmHg 93%
    02:00 +10°C° 3.2 mm 3 m/S 755 mmHg 93%
    03:00 +10°C° 3.2 mm 3 m/S 755 mmHg 94%
    04:00 +10°C° 3.2 mm 2 m/S 755 mmHg 95%
    05:00 +10°C° 1.1 mm 2 m/S 755 mmHg 94%
    06:00 +11°C° 1.1 mm 1 m/S 755 mmHg 94%
    07:00 +11°C° 1.1 mm 1 m/S 755 mmHg 93%
    08:00 +11°C° 0.1 mm 1 m/S 755 mmHg 91%
    09:00 +11°C° 0.1 mm 1 m/S 755 mmHg 89%
    10:00 +11°C° 0.1 mm 1 m/S 756 mmHg 88%
    11:00 +12°C° 0 mm 1 m/S 755 mmHg 85%
    12:00 +12°C° 0 mm 1 m/S 755 mmHg 82%
    13:00 +13°C° 0 mm 2 m/S 755 mmHg 79%
    14:00 +13°C° 0 mm 2 m/S 755 mmHg 79%
    15:00 +13°C° 0 mm 2 m/S 755 mmHg 79%
    16:00 +12°C° 0 mm 3 m/S 755 mmHg 79%
    17:00 +11°C° 0 mm 3 m/S 756 mmHg 82%
    18:00 +10°C° 0 mm 3 m/S 756 mmHg 85%
    19:00 +9°C° 0 mm 3 m/S 756 mmHg 89%
    20:00 +8°C° 0.1 mm 3 m/S 756 mmHg 89%
    21:00 +8°C° 0.1 mm 3 m/S 757 mmHg 88%
    22:00 +8°C° 0.1 mm 3 m/S 757 mmHg 88%
    23:00 +8°C° 0 mm 3 m/S 757 mmHg 88%

    28 Januar, Dienstag

    Zeit Temperatur Niederschläge Wind Luftdruck Luftfeuchtigkeit
    00:00 +9°C° 0 mm 2 m/S 757 mmHg 88%
    01:00 +9°C° 0 mm 2 m/S 757 mmHg 87%
    02:00 +9°C° 0 mm 2 m/S 757 mmHg 87%
    03:00 +9°C° 0 mm 2 m/S 757 mmHg 88%
    04:00 +9°C° 0 mm 2 m/S 757 mmHg 88%
    05:00 +9°C° 0 mm 2 m/S 757 mmHg 87%
    06:00 +9°C° 0 mm 2 m/S 757 mmHg 86%
    07:00 +9°C° 0 mm 2 m/S 757 mmHg 85%
    08:00 +10°C° 0 mm 2 m/S 757 mmHg 81%
    09:00 +12°C° 0 mm 2 m/S 757 mmHg 78%
    10:00 +13°C° 0 mm 2 m/S 758 mmHg 74%
    11:00 +13°C° 0 mm 2 m/S 757 mmHg 73%
    12:00 +13°C° 0 mm 2 m/S 757 mmHg 71%
    13:00 +14°C° 0 mm 2 m/S 756 mmHg 70%
    14:00 +14°C° 0 mm 2 m/S 756 mmHg 72%
    15:00 +13°C° 0 mm 1 m/S 756 mmHg 74%
    16:00 +13°C° 0 mm 1 m/S 756 mmHg 76%
    17:00 +12°C° 0 mm 1 m/S 757 mmHg 79%
    18:00 +11°C° 0 mm 1 m/S 757 mmHg 81%
    19:00 +10°C° 0 mm 1 m/S 757 mmHg 84%
    20:00 +9°C° 0 mm 2 m/S 757 mmHg 84%
    21:00 +9°C° 0 mm 2 m/S 757 mmHg 84%
    22:00 +9°C° 0 mm 3 m/S 758 mmHg 84%
    23:00 +9°C° 0 mm 3 m/S 757 mmHg 82%

    29 Januar, Mittwoch

    Zeit Temperatur Niederschläge Wind Luftdruck Luftfeuchtigkeit
    00:00 +9°C° 0 mm 3 m/S 757 mmHg 81%
    01:00 +9°C° 0 mm 3 m/S 757 mmHg 79%
    02:00 +9°C° 0 mm 3 m/S 757 mmHg 78%
    03:00 +8°C° 0 mm 3 m/S 757 mmHg 77%
    04:00 +8°C° 0 mm 3 m/S 757 mmHg 76%
    05:00 +8°C° 0 mm 3 m/S 757 mmHg 75%
    06:00 +7°C° 0 mm 4 m/S 756 mmHg 75%
    07:00 +7°C° 0 mm 4 m/S 756 mmHg 74%
    08:00 +8°C° 0 mm 4 m/S 756 mmHg 70%
    09:00 +11°C° 0 mm 4 m/S 756 mmHg 66%
    10:00 +13°C° 0 mm 4 m/S 756 mmHg 62%
    11:00 +13°C° 0 mm 5 m/S 756 mmHg 62%
    12:00 +14°C° 0 mm 5 m/S 755 mmHg 61%
    13:00 +14°C° 0 mm 6 m/S 755 mmHg 61%
    14:00 +14°C° 0 mm 7 m/S 754 mmHg 65%
    15:00 +12°C° 0 mm 7 m/S 754 mmHg 70%
    16:00 +12°C° 0 mm 8 m/S 754 mmHg 74%
    17:00 +11°C° 0.1 mm 8 m/S 754 mmHg 77%
    18:00 +10°C° 0.1 mm 8 m/S 754 mmHg 81%
    19:00 +10°C° 0.1 mm 8 m/S 754 mmHg 84%
    20:00 +10°C° 0.2 mm 8 m/S 754 mmHg 84%
    21:00 +10°C° 0.2 mm 7 m/S 754 mmHg 83%
    22:00 +10°C° 0.2 mm 7 m/S 754 mmHg 82%
    23:00 +10°C° 0.1 mm 6 m/S 754 mmHg 81%
    Mehr zeigen